• In Schweiz
  • Länderverzeichnis
  • Für 7 Tage
  • Wassertemperatur
  • Satellitenkarten
  • Wetterkarte
  • Widgets
  • user-avatar
    Anmelden

    Stündliche Wetter Lososin

    Heute, 23 September, Sonntag

    Zeit Temperatur Niederschläge Wind Luftdruck Luftfeuchtigkeit
    00:00 +8°C° 0 mm 3 m/S 747 mmHg 85%
    01:00 +8°C° 0 mm 3 m/S 747 mmHg 86%
    02:00 +8°C° 0 mm 3 m/S 747 mmHg 86%
    03:00 +7°C° 0 mm 3 m/S 747 mmHg 87%
    04:00 +7°C° 0 mm 3 m/S 747 mmHg 87%
    05:00 +7°C° 0 mm 3 m/S 747 mmHg 87%
    06:00 +7°C° 0 mm 4 m/S 747 mmHg 84%
    07:00 +8°C° 0 mm 4 m/S 747 mmHg 81%
    08:00 +10°C° 0 mm 4 m/S 747 mmHg 78%
    09:00 +10°C° 0 mm 5 m/S 747 mmHg 71%
    10:00 +13°C° 0 mm 5 m/S 747 mmHg 64%
    11:00 +15°C° 0 mm 6 m/S 746 mmHg 57%
    12:00 +15°C° 0.2 mm 5 m/S 746 mmHg 59%
    13:00 +14°C° 0.2 mm 5 m/S 746 mmHg 60%
    14:00 +14°C° 0.2 mm 5 m/S 746 mmHg 62%
    15:00 +14°C° 0.2 mm 4 m/S 745 mmHg 67%
    16:00 +13°C° 0.2 mm 4 m/S 745 mmHg 71%
    17:00 +13°C° 0.2 mm 3 m/S 745 mmHg 76%
    18:00 +12°C° 0 mm 3 m/S 744 mmHg 79%
    19:00 +11°C° 0 mm 3 m/S 744 mmHg 83%
    20:00 +10°C° 0 mm 2 m/S 744 mmHg 87%
    21:00 +10°C° 0.6 mm 2 m/S 743 mmHg 89%
    22:00 +10°C° 0.6 mm 2 m/S 743 mmHg 91%
    23:00 +10°C° 0.6 mm 2 m/S 742 mmHg 93%

    Morgen, 24 September, Montag

    Zeit Temperatur Niederschläge Wind Luftdruck Luftfeuchtigkeit
    00:00 +10°C° 1.7 mm 2 m/S 741 mmHg 94%
    01:00 +10°C° 1.7 mm 3 m/S 740 mmHg 95%
    02:00 +10°C° 1.7 mm 4 m/S 739 mmHg 96%
    03:00 +10°C° 1 mm 4 m/S 738 mmHg 95%
    04:00 +10°C° 1 mm 4 m/S 736 mmHg 95%
    05:00 +10°C° 1 mm 4 m/S 735 mmHg 95%
    06:00 +9°C° 1.2 mm 5 m/S 736 mmHg 94%
    07:00 +8°C° 1.2 mm 6 m/S 736 mmHg 93%
    08:00 +8°C° 1.2 mm 7 m/S 736 mmHg 92%
    09:00 +9°C° 0.2 mm 7 m/S 737 mmHg 87%
    10:00 +9°C° 0.2 mm 7 m/S 738 mmHg 83%
    11:00 +9°C° 0.2 mm 7 m/S 739 mmHg 78%
    12:00 +10°C° 0.3 mm 7 m/S 740 mmHg 75%
    13:00 +11°C° 0.3 mm 7 m/S 740 mmHg 72%
    14:00 +11°C° 0.3 mm 8 m/S 741 mmHg 69%
    15:00 +11°C° 0.2 mm 7 m/S 741 mmHg 69%
    16:00 +11°C° 0.2 mm 6 m/S 742 mmHg 70%
    17:00 +10°C° 0.2 mm 5 m/S 742 mmHg 71%
    18:00 +9°C° 0.3 mm 5 m/S 742 mmHg 74%
    19:00 +9°C° 0.3 mm 5 m/S 743 mmHg 77%
    20:00 +8°C° 0.3 mm 5 m/S 743 mmHg 81%
    21:00 +7°C° 0.4 mm 5 m/S 744 mmHg 82%
    22:00 +7°C° 0.4 mm 5 m/S 744 mmHg 83%
    23:00 +7°C° 0.4 mm 5 m/S 745 mmHg 84%

    übermorgen, 25 September, Dienstag

    Zeit Temperatur Niederschläge Wind Luftdruck Luftfeuchtigkeit
    00:00 +6°C° 0.1 mm 5 m/S 746 mmHg 84%
    01:00 +6°C° 0.1 mm 5 m/S 746 mmHg 84%
    02:00 +4°C° 0.1 mm 6 m/S 747 mmHg 84%
    03:00 +3°C° 0 mm 5 m/S 748 mmHg 85%
    04:00 +3°C° 0 mm 5 m/S 749 mmHg 85%
    05:00 +2°C° 0 mm 5 m/S 749 mmHg 85%
    06:00 +3°C° 0 mm 6 m/S 750 mmHg 82%
    07:00 +3°C° 0 mm 6 m/S 751 mmHg 79%
    08:00 +4°C° 0 mm 7 m/S 751 mmHg 76%
    09:00 +5°C° 0 mm 7 m/S 752 mmHg 71%
    10:00 +6°C° 0 mm 7 m/S 752 mmHg 65%
    11:00 +7°C° 0 mm 8 m/S 753 mmHg 60%
    12:00 +9°C° 0.2 mm 8 m/S 753 mmHg 60%
    13:00 +9°C° 0.2 mm 8 m/S 753 mmHg 59%
    14:00 +9°C° 0.2 mm 8 m/S 753 mmHg 59%
    15:00 +9°C° 0.1 mm 7 m/S 754 mmHg 61%
    16:00 +8°C° 0.1 mm 6 m/S 754 mmHg 64%
    17:00 +8°C° 0.1 mm 6 m/S 754 mmHg 66%
    18:00 +7°C° 0 mm 5 m/S 755 mmHg 69%
    19:00 +6°C° 0 mm 5 m/S 756 mmHg 73%
    20:00 +5°C° 0 mm 5 m/S 757 mmHg 76%
    21:00 +5°C° 0 mm 4 m/S 757 mmHg 78%
    22:00 +4°C° 0 mm 4 m/S 758 mmHg 80%
    23:00 +4°C° 0 mm 4 m/S 759 mmHg 82%

    26 September, Mittwoch

    Zeit Temperatur Niederschläge Wind Luftdruck Luftfeuchtigkeit
    00:00 +4°C° 0 mm 4 m/S 759 mmHg 84%
    01:00 +3°C° 0 mm 3 m/S 759 mmHg 86%
    02:00 +3°C° 0 mm 3 m/S 760 mmHg 88%
    03:00 +2°C° 0 mm 3 m/S 760 mmHg 89%
    04:00 +2°C° 0 mm 3 m/S 760 mmHg 90%
    05:00 +3°C° 0 mm 2 m/S 760 mmHg 91%
    06:00 +3°C° 0 mm 3 m/S 760 mmHg 86%
    07:00 +3°C° 0 mm 3 m/S 761 mmHg 81%
    08:00 +4°C° 0 mm 3 m/S 761 mmHg 76%
    09:00 +6°C° 0 mm 4 m/S 761 mmHg 69%
    10:00 +8°C° 0 mm 4 m/S 761 mmHg 62%
    11:00 +9°C° 0 mm 5 m/S 760 mmHg 56%
    12:00 +10°C° 0 mm 5 m/S 760 mmHg 55%
    13:00 +10°C° 0 mm 5 m/S 759 mmHg 54%
    14:00 +10°C° 0 mm 5 m/S 759 mmHg 54%
    15:00 +10°C° 0 mm 5 m/S 758 mmHg 56%
    16:00 +11°C° 0 mm 4 m/S 758 mmHg 59%
    17:00 +11°C° 0 mm 4 m/S 757 mmHg 61%
    18:00 +10°C° 0 mm 4 m/S 757 mmHg 62%
    19:00 +9°C° 0 mm 5 m/S 756 mmHg 63%
    20:00 +9°C° 0 mm 5 m/S 756 mmHg 64%
    21:00 +8°C° 0 mm 5 m/S 756 mmHg 64%
    22:00 +8°C° 0 mm 6 m/S 755 mmHg 64%
    23:00 +8°C° 0 mm 6 m/S 755 mmHg 64%

    27 September, Donnerstag

    Zeit Temperatur Niederschläge Wind Luftdruck Luftfeuchtigkeit
    00:00 +8°C° 0.1 mm 6 m/S 754 mmHg 67%
    01:00 +8°C° 0.1 mm 6 m/S 753 mmHg 69%
    02:00 +8°C° 0.1 mm 6 m/S 753 mmHg 72%
    03:00 +8°C° 0.4 mm 7 m/S 752 mmHg 76%
    04:00 +8°C° 0.4 mm 7 m/S 752 mmHg 80%
    05:00 +8°C° 0.4 mm 7 m/S 751 mmHg 84%
    06:00 +8°C° 0.3 mm 7 m/S 751 mmHg 84%
    07:00 +8°C° 0.3 mm 7 m/S 751 mmHg 84%
    08:00 +8°C° 0.3 mm 7 m/S 750 mmHg 84%
    09:00 +8°C° 0.1 mm 7 m/S 750 mmHg 84%
    10:00 +9°C° 0.1 mm 7 m/S 750 mmHg 84%
    11:00 +9°C° 0.1 mm 7 m/S 750 mmHg 84%
    12:00 +10°C° 0 mm 7 m/S 750 mmHg 83%
    13:00 +11°C° 0 mm 7 m/S 750 mmHg 82%
    14:00 +11°C° 0 mm 7 m/S 750 mmHg 81%
    15:00 +13°C° 0 mm 6 m/S 750 mmHg 81%
    16:00 +13°C° 0 mm 6 m/S 750 mmHg 82%
    17:00 +13°C° 0 mm 5 m/S 750 mmHg 83%
    18:00 +13°C° 0.1 mm 5 m/S 750 mmHg 84%
    19:00 +13°C° 0.1 mm 5 m/S 750 mmHg 86%
    20:00 +13°C° 0.1 mm 5 m/S 750 mmHg 88%
    21:00 +13°C° 0.1 mm 5 m/S 750 mmHg 89%
    22:00 +13°C° 0.1 mm 5 m/S 750 mmHg 91%
    23:00 +12°C° 0.1 mm 5 m/S 750 mmHg 93%

    28 September, Freitag

    Zeit Temperatur Niederschläge Wind Luftdruck Luftfeuchtigkeit
    00:00 +12°C° 0 mm 5 m/S 750 mmHg 93%
    01:00 +12°C° 0 mm 4 m/S 750 mmHg 94%
    02:00 +12°C° 0 mm 4 m/S 750 mmHg 94%
    03:00 +12°C° 0 mm 5 m/S 749 mmHg 94%
    04:00 +12°C° 0 mm 5 m/S 749 mmHg 94%
    05:00 +11°C° 0 mm 6 m/S 748 mmHg 93%
    06:00 +11°C° 0 mm 6 m/S 748 mmHg 91%
    07:00 +12°C° 0 mm 7 m/S 748 mmHg 89%
    08:00 +14°C° 0 mm 7 m/S 748 mmHg 87%
    09:00 +14°C° 0 mm 7 m/S 748 mmHg 84%
    10:00 +15°C° 0 mm 7 m/S 748 mmHg 82%
    11:00 +16°C° 0 mm 7 m/S 748 mmHg 79%
    12:00 +16°C° 0.1 mm 6 m/S 748 mmHg 78%
    13:00 +17°C° 0.1 mm 5 m/S 748 mmHg 76%
    14:00 +17°C° 0.1 mm 5 m/S 748 mmHg 75%
    15:00 +17°C° 0.2 mm 4 m/S 748 mmHg 78%
    16:00 +17°C° 0.2 mm 3 m/S 748 mmHg 81%
    17:00 +16°C° 0.2 mm 2 m/S 748 mmHg 84%
    18:00 +15°C° 0.3 mm 2 m/S 748 mmHg 87%
    19:00 +15°C° 0.3 mm 2 m/S 748 mmHg 90%
    20:00 +14°C° 0.3 mm 1 m/S 748 mmHg 93%
    21:00 +14°C° 0.7 mm 2 m/S 748 mmHg 93%
    22:00 +13°C° 0.7 mm 2 m/S 748 mmHg 93%
    23:00 +13°C° 0.7 mm 2 m/S 748 mmHg 94%
    Mehr zeigen